Location: Sungai Bunut
(2.6333°N, 113.7333°E)
Time: 19:52:41
(UTC+00:00)

Ariane 3 Deb - Pass Details

Date: 16 October 2021
Orbit: 281 x 17991 km, 6.8° (Epoch: 08 December)

Event Time Altitude Azimuth Distance (km) Brightness Sun altitude
Rises 11:50:13 0° 261° (W) 10,770 10.3 -25.0°
Reaches altitude 10° 12:02:18 10° 259° (W) 6,663 8.8 -28.0°
Enters shadow 12:16:16 67° 200° (SSW) 1,048 3.6 -31.4°
